Time,TemperatureF,DewpointF,PressureIn,WindDirection,WindDirectionDegrees,WindSpeedMPH,WindSpeedGustMPH,Humidity,HourlyPrecipIn,Conditions,Clouds,dailyrainin,SolarRadiationWatts/m^2,SoftwareType,DateUTC
2013-03-14 00:02:00,42.0,23.0,-100.00,SSW,201,1.0,6.0,46,0.00,,,0.00,1.000000,,2013-03-14 06:02:00,
2013-03-14 00:12:00,42.0,23.0,-100.00,SSW,201,1.0,6.0,46,0.00,,,0.00,1.000000,,2013-03-14 06:12:00,
2013-03-14 00:22:00,42.0,23.0,-100.00,SSW,201,1.0,6.0,46,0.00,,,0.00,1.000000,,2013-03-14 06:22:00,
2013-03-14 00:42:00,40.0,22.0,-100.00,SW,218,2.0,6.0,49,0.00,,,0.00,1.000000,,2013-03-14 06:42:00,
2013-03-14 00:52:00,40.0,22.0,-100.00,SW,218,2.0,6.0,49,0.00,,,0.00,1.000000,,2013-03-14 06:52:00,
2013-03-14 01:02:00,40.0,22.0,-100.00,SW,218,2.0,6.0,49,0.00,,,0.00,1.000000,,2013-03-14 07:02:00,
2013-03-14 01:12:00,40.0,22.0,-100.00,SW,218,2.0,6.0,49,0.00,,,0.00,1.000000,,2013-03-14 07:12:00,
2013-03-14 01:22:00,40.0,22.0,-100.00,SW,218,2.0,6.0,49,0.00,,,0.00,1.000000,,2013-03-14 07:22:00,
2013-03-14 01:43:00,41.0,23.0,-100.00,SW,219,4.0,7.0,49,0.00,,,0.00,1.000000,,2013-03-14 07:43:00,
2013-03-14 01:52:00,41.0,23.0,-100.00,SW,219,4.0,7.0,49,0.00,,,0.00,1.000000,,2013-03-14 07:52:00,
2013-03-14 02:02:00,41.0,23.0,-100.00,SW,219,4.0,7.0,49,0.00,,,0.00,1.000000,,2013-03-14 08:02:00,
2013-03-14 02:12:00,41.0,23.0,-100.00,SW,219,4.0,7.0,49,0.00,,,0.00,1.000000,,2013-03-14 08:12:00,
2013-03-14 02:21:00,41.0,23.0,-100.00,SW,219,4.0,7.0,49,0.00,,,0.00,1.000000,,2013-03-14 08:21:00,
2013-03-14 02:42:00,40.0,23.0,-100.00,East,88,2.0,5.0,50,0.00,,,0.00,1.000000,,2013-03-14 08:42:00,
2013-03-14 02:52:00,40.0,23.0,-100.00,East,88,2.0,5.0,50,0.00,,,0.00,1.000000,,2013-03-14 08:52:00,
2013-03-14 03:01:00,40.0,23.0,-100.00,East,88,2.0,5.0,50,0.00,,,0.00,1.000000,,2013-03-14 09:01:00,
2013-03-14 03:12:00,40.0,23.0,-100.00,East,88,2.0,5.0,50,0.00,,,0.00,1.000000,,2013-03-14 09:12:00,
2013-03-14 03:22:00,40.0,23.0,-100.00,East,88,2.0,5.0,50,0.00,,,0.00,1.000000,,2013-03-14 09:22:00,
2013-03-14 03:42:00,40.0,23.0,-100.00,NNE,31,2.0,3.0,51,0.00,,,0.00,1.000000,,2013-03-14 09:42:00,
2013-03-14 03:52:00,40.0,23.0,-100.00,NNE,31,2.0,3.0,51,0.00,,,0.00,1.000000,,2013-03-14 09:52:00,
2013-03-14 04:02:00,40.0,23.0,-100.00,NNE,31,2.0,3.0,51,0.00,,,0.00,1.000000,,2013-03-14 10:02:00,
2013-03-14 04:12:00,40.0,23.0,-100.00,NNE,31,2.0,3.0,51,0.00,,,0.00,1.000000,,2013-03-14 10:12:00,
2013-03-14 04:22:00,40.0,23.0,-100.00,NNE,31,2.0,3.0,51,0.00,,,0.00,1.000000,,2013-03-14 10:22:00,
2013-03-14 04:42:00,38.0,23.0,-100.00,NNE,24,1.0,2.0,54,0.00,,,0.00,1.000000,,2013-03-14 10:42:00,
2013-03-14 04:52:00,38.0,23.0,-100.00,NNE,24,1.0,2.0,54,0.00,,,0.00,1.000000,,2013-03-14 10:52:00,
2013-03-14 05:02:00,38.0,23.0,-100.00,NNE,24,1.0,2.0,54,0.00,,,0.00,1.000000,,2013-03-14 11:02:00,
2013-03-14 05:12:00,38.0,23.0,-100.00,NNE,24,1.0,2.0,54,0.00,,,0.00,1.000000,,2013-03-14 11:12:00,
2013-03-14 05:22:00,38.0,23.0,-100.00,NNE,24,1.0,2.0,54,0.00,,,0.00,1.000000,,2013-03-14 11:22:00,
2013-03-14 05:42:00,36.0,23.0,-100.00,South,170,0.0,3.0,60,0.00,,,0.00,1.000000,,2013-03-14 11:42:00,
2013-03-14 05:53:00,36.0,23.0,-100.00,South,170,0.0,3.0,60,0.00,,,0.00,1.000000,,2013-03-14 11:53:00,
2013-03-14 06:02:00,36.0,23.0,-100.00,South,170,0.0,3.0,60,0.00,,,0.00,1.000000,,2013-03-14 12:02:00,
2013-03-14 06:12:00,36.0,23.0,-100.00,South,170,0.0,3.0,60,0.00,,,0.00,1.000000,,2013-03-14 12:12:00,
2013-03-14 06:22:00,36.0,23.0,-100.00,South,170,0.0,3.0,60,0.00,,,0.00,1.000000,,2013-03-14 12:22:00,
2013-03-14 06:43:00,38.0,24.0,-100.00,NE,49,2.0,3.0,56,0.00,,,0.00,1.000000,,2013-03-14 12:43:00,
2013-03-14 06:52:00,38.0,24.0,-100.00,NE,49,2.0,3.0,56,0.00,,,0.00,1.000000,,2013-03-14 12:52:00,
2013-03-14 07:02:00,38.0,24.0,-100.00,NE,49,2.0,3.0,56,0.00,,,0.00,1.000000,,2013-03-14 13:02:00,
2013-03-14 07:12:00,38.0,24.0,-100.00,NE,49,2.0,3.0,56,0.00,,,0.00,1.000000,,2013-03-14 13:12:00,
2013-03-14 07:22:00,38.0,24.0,-100.00,NE,49,2.0,3.0,56,0.00,,,0.00,1.000000,,2013-03-14 13:22:00,
2013-03-14 07:43:00,39.0,25.0,-100.00,North,349,1.0,3.0,56,0.00,,,0.00,2.000000,,2013-03-14 13:43:00,
2013-03-14 07:52:00,39.0,25.0,-100.00,North,349,1.0,3.0,56,0.00,,,0.00,2.000000,,2013-03-14 13:52:00,
2013-03-14 08:02:00,39.0,25.0,-100.00,North,349,1.0,3.0,56,0.00,,,0.00,2.000000,,2013-03-14 14:02:00,
2013-03-14 08:12:00,39.0,25.0,-100.00,North,349,1.0,3.0,56,0.00,,,0.00,2.000000,,2013-03-14 14:12:00,
2013-03-14 08:22:00,39.0,25.0,-100.00,North,349,1.0,3.0,56,0.00,,,0.00,2.000000,,2013-03-14 14:22:00,
2013-03-14 08:42:00,40.0,26.0,-100.00,WNW,291,0.0,5.0,56,0.00,,,0.00,54.000000,,2013-03-14 14:42:00,
2013-03-14 08:53:00,40.0,26.0,-100.00,WNW,291,0.0,5.0,56,0.00,,,0.00,54.000000,,2013-03-14 14:53:00,
2013-03-14 09:02:00,40.0,26.0,-100.00,WNW,291,0.0,5.0,56,0.00,,,0.00,54.000000,,2013-03-14 15:02:00,
2013-03-14 09:12:00,40.0,26.0,-100.00,WNW,291,0.0,5.0,56,0.00,,,0.00,54.000000,,2013-03-14 15:12:00,
2013-03-14 09:22:00,40.0,26.0,-100.00,WNW,291,0.0,5.0,56,0.00,,,0.00,54.000000,,2013-03-14 15:22:00,
2013-03-14 09:43:00,50.0,28.0,-100.00,West,260,1.0,4.0,42,0.00,,,0.00,180.000000,,2013-03-14 15:43:00,
2013-03-14 09:52:00,50.0,28.0,-100.00,West,260,1.0,4.0,42,0.00,,,0.00,180.000000,,2013-03-14 15:52:00,
2013-03-14 10:03:00,50.0,28.0,-100.00,West,260,1.0,4.0,42,0.00,,,0.00,180.000000,,2013-03-14 16:03:00,
2013-03-14 10:12:00,50.0,28.0,-100.00,West,260,1.0,4.0,42,0.00,,,0.00,180.000000,,2013-03-14 16:12:00,
2013-03-14 10:22:00,50.0,28.0,-100.00,West,260,1.0,4.0,42,0.00,,,0.00,180.000000,,2013-03-14 16:22:00,
2013-03-14 10:42:00,56.0,26.0,-100.00,WSW,245,4.0,10.0,31,0.00,,,0.00,461.000000,,2013-03-14 16:42:00,
2013-03-14 10:52:00,56.0,26.0,-100.00,WSW,245,4.0,10.0,31,0.00,,,0.00,461.000000,,2013-03-14 16:52:00,
2013-03-14 11:02:00,56.0,26.0,-100.00,WSW,245,4.0,10.0,31,0.00,,,0.00,461.000000,,2013-03-14 17:02:00,
2013-03-14 11:12:00,56.0,26.0,-100.00,WSW,245,4.0,10.0,31,0.00,,,0.00,461.000000,,2013-03-14 17:12:00,
2013-03-14 11:23:00,56.0,26.0,-100.00,WSW,245,4.0,10.0,31,0.00,,,0.00,461.000000,,2013-03-14 17:23:00,
2013-03-14 11:42:00,58.0,24.0,-100.00,SW,218,5.0,16.0,27,0.00,,,0.00,614.000000,,2013-03-14 17:42:00,
2013-03-14 11:53:00,58.0,24.0,-100.00,SW,218,5.0,16.0,27,0.00,,,0.00,614.000000,,2013-03-14 17:53:00,
2013-03-14 12:03:00,58.0,24.0,-100.00,SW,218,5.0,16.0,27,0.00,,,0.00,614.000000,,2013-03-14 18:03:00,
2013-03-14 12:12:00,58.0,24.0,-100.00,SW,218,5.0,16.0,27,0.00,,,0.00,614.000000,,2013-03-14 18:12:00,
2013-03-14 12:22:00,58.0,24.0,-100.00,SW,218,5.0,16.0,27,0.00,,,0.00,614.000000,,2013-03-14 18:22:00,
2013-03-14 12:43:00,60.0,24.0,-100.00,SW,216,6.0,13.0,25,0.00,,,0.00,723.000000,,2013-03-14 18:43:00,
2013-03-14 12:52:00,60.0,24.0,-100.00,SW,216,6.0,13.0,25,0.00,,,0.00,723.000000,,2013-03-14 18:52:00,
2013-03-14 13:03:00,60.0,24.0,-100.00,SW,216,6.0,13.0,25,0.00,,,0.00,723.000000,,2013-03-14 19:03:00,
2013-03-14 13:12:00,60.0,24.0,-100.00,SW,216,6.0,13.0,25,0.00,,,0.00,723.000000,,2013-03-14 19:12:00,
2013-03-14 13:22:00,60.0,24.0,-100.00,SW,216,6.0,13.0,25,0.00,,,0.00,723.000000,,2013-03-14 19:22:00,
2013-03-14 14:42:00,62.0,23.0,-100.00,WSW,241,5.0,13.0,22,-99.99,,,0.00,713.000000,,2013-03-14 20:42:00,
2013-03-14 14:52:00,62.0,23.0,-100.00,WSW,241,5.0,13.0,22,-99.99,,,0.00,713.000000,,2013-03-14 20:52:00,
2013-03-14 15:02:00,62.0,23.0,-100.00,WSW,241,5.0,13.0,22,-99.99,,,0.00,713.000000,,2013-03-14 21:02:00,
2013-03-14 15:12:00,62.0,23.0,-100.00,WSW,241,5.0,13.0,22,-99.99,,,0.00,713.000000,,2013-03-14 21:12:00,
2013-03-14 15:22:00,62.0,23.0,-100.00,WSW,241,5.0,13.0,22,-99.99,,,0.00,713.000000,,2013-03-14 21:22:00,
2013-03-14 15:43:00,60.0,21.0,-100.00,SW,220,7.0,12.0,22,0.00,,,0.00,533.000000,,2013-03-14 21:43:00,
2013-03-14 15:53:00,60.0,21.0,-100.00,SW,220,7.0,12.0,22,0.00,,,0.00,533.000000,,2013-03-14 21:53:00,
2013-03-14 16:03:00,60.0,21.0,-100.00,SW,220,7.0,12.0,22,0.00,,,0.00,533.000000,,2013-03-14 22:03:00,
2013-03-14 16:13:00,60.0,21.0,-100.00,SW,220,7.0,12.0,22,0.00,,,0.00,533.000000,,2013-03-14 22:13:00,
2013-03-14 16:23:00,60.0,21.0,-100.00,SW,220,7.0,12.0,22,0.00,,,0.00,533.000000,,2013-03-14 22:23:00,
2013-03-14 16:42:00,60.0,22.0,-100.00,WSW,258,4.0,10.0,23,0.00,,,0.00,480.000000,,2013-03-14 22:42:00,
2013-03-14 16:52:00,60.0,22.0,-100.00,WSW,258,4.0,10.0,23,0.00,,,0.00,480.000000,,2013-03-14 22:52:00,
2013-03-14 17:02:00,60.0,22.0,-100.00,WSW,258,4.0,10.0,23,0.00,,,0.00,480.000000,,2013-03-14 23:02:00,
2013-03-14 17:12:00,60.0,22.0,-100.00,WSW,258,4.0,10.0,23,0.00,,,0.00,480.000000,,2013-03-14 23:12:00,
2013-03-14 17:22:00,60.0,22.0,-100.00,WSW,258,4.0,10.0,23,0.00,,,0.00,480.000000,,2013-03-14 23:22:00,
2013-03-14 17:43:00,57.0,22.0,-100.00,WSW,246,2.0,12.0,26,0.00,,,0.00,190.000000,,2013-03-14 23:43:00,
2013-03-14 17:53:00,57.0,22.0,-100.00,WSW,246,2.0,12.0,26,0.00,,,0.00,190.000000,,2013-03-14 23:53:00,
2013-03-14 18:02:00,57.0,22.0,-100.00,WSW,246,2.0,12.0,26,0.00,,,0.00,190.000000,,2013-03-15 00:02:00,
2013-03-14 18:12:00,57.0,22.0,-100.00,WSW,246,2.0,12.0,26,0.00,,,0.00,190.000000,,2013-03-15 00:12:00,
2013-03-14 18:22:00,57.0,22.0,-100.00,WSW,246,2.0,12.0,26,0.00,,,0.00,190.000000,,2013-03-15 00:22:00,
2013-03-14 18:43:00,54.0,22.0,-100.00,WSW,240,0.0,5.0,29,0.00,,,0.00,83.000000,,2013-03-15 00:43:00,
2013-03-14 18:52:00,54.0,22.0,-100.00,WSW,240,0.0,5.0,29,0.00,,,0.00,83.000000,,2013-03-15 00:52:00,
2013-03-14 19:02:00,54.0,22.0,-100.00,WSW,240,0.0,5.0,29,0.00,,,0.00,83.000000,,2013-03-15 01:02:00,
2013-03-14 19:12:00,54.0,22.0,-100.00,WSW,240,0.0,5.0,29,0.00,,,0.00,83.000000,,2013-03-15 01:12:00,
2013-03-14 19:22:00,54.0,22.0,-100.00,WSW,240,0.0,5.0,29,0.00,,,0.00,83.000000,,2013-03-15 01:22:00,
2013-03-14 19:43:00,50.0,21.0,-100.00,NNW,340,0.0,2.0,32,0.00,,,0.00,11.000000,,2013-03-15 01:43:00,
2013-03-14 19:52:00,50.0,21.0,-100.00,NNW,340,0.0,2.0,32,0.00,,,0.00,11.000000,,2013-03-15 01:52:00,
2013-03-14 20:02:00,50.0,21.0,-100.00,NNW,340,0.0,2.0,32,0.00,,,0.00,11.000000,,2013-03-15 02:02:00,
2013-03-14 20:12:00,50.0,21.0,-100.00,NNW,340,0.0,2.0,32,0.00,,,0.00,11.000000,,2013-03-15 02:12:00,
2013-03-14 20:22:00,50.0,21.0,-100.00,NNW,340,0.0,2.0,32,0.00,,,0.00,11.000000,,2013-03-15 02:22:00,
2013-03-14 20:42:00,48.0,22.0,-100.00,SSE,164,1.0,4.0,36,0.00,,,0.00,1.000000,,2013-03-15 02:42:00,
2013-03-14 20:52:00,48.0,22.0,-100.00,SSE,164,1.0,4.0,36,0.00,,,0.00,1.000000,,2013-03-15 02:52:00,
2013-03-14 21:02:00,48.0,22.0,-100.00,SSE,164,1.0,4.0,36,0.00,,,0.00,1.000000,,2013-03-15 03:02:00,
2013-03-14 21:12:00,48.0,22.0,-100.00,SSE,164,1.0,4.0,36,0.00,,,0.00,1.000000,,2013-03-15 03:12:00,
2013-03-14 21:22:00,48.0,22.0,-100.00,SSE,164,1.0,4.0,36,0.00,,,0.00,1.000000,,2013-03-15 03:22:00,
2013-03-14 21:43:00,47.0,22.0,-100.00,SW,216,2.0,4.0,37,0.00,,,0.00,1.000000,,2013-03-15 03:43:00,
2013-03-14 21:53:00,47.0,22.0,-100.00,SW,216,2.0,4.0,37,0.00,,,0.00,1.000000,,2013-03-15 03:53:00,
2013-03-14 22:03:00,47.0,22.0,-100.00,SW,216,2.0,4.0,37,0.00,,,0.00,1.000000,,2013-03-15 04:03:00,
2013-03-14 22:12:00,47.0,22.0,-100.00,SW,216,2.0,4.0,37,0.00,,,0.00,1.000000,,2013-03-15 04:12:00,
2013-03-14 22:22:00,47.0,22.0,-100.00,SW,216,2.0,4.0,37,0.00,,,0.00,1.000000,,2013-03-15 04:22:00,
2013-03-14 22:43:00,46.0,22.0,-100.00,NE,52,0.0,5.0,39,0.00,,,0.00,1.000000,,2013-03-15 04:43:00,
2013-03-14 22:53:00,46.0,22.0,-100.00,NE,52,0.0,5.0,39,0.00,,,0.00,1.000000,,2013-03-15 04:53:00,
2013-03-14 23:02:00,46.0,22.0,-100.00,NE,52,0.0,5.0,39,0.00,,,0.00,1.000000,,2013-03-15 05:02:00,
2013-03-14 23:12:00,46.0,22.0,-100.00,NE,52,0.0,5.0,39,0.00,,,0.00,1.000000,,2013-03-15 05:12:00,
2013-03-14 23:22:00,46.0,22.0,-100.00,NE,52,0.0,5.0,39,0.00,,,0.00,1.000000,,2013-03-15 05:22:00,
2013-03-14 23:42:00,48.0,22.0,-100.00,NNE,21,2.0,5.0,35,0.00,,,0.00,1.000000,,2013-03-15 05:42:00,
2013-03-14 23:52:00,48.0,22.0,-100.00,NNE,21,2.0,5.0,35,0.00,,,0.00,1.000000,,2013-03-15 05:52:00,